Change the Weather History Date:

Saturday, February 11, 2012

  Actual Average (KLOT) Record (KLOT)
Temperature  
Mean Temperature 16 °F 26 °F  
Max Temperature 22 °F 34 °F 70 °F (1999)
Min Temperature 10 °F 18 °F -14 °F (2014)
Degree Days  
Heating Degree Days 49 39  
Month to date heating degree days 440  
Since 1 July heating degree days 4121  
Cooling Degree Days 0 0  
Month to date cooling degree days 0  
Year to date cooling degree days 0  
Moisture  
Dew Point -1 °F    
Average Humidity 49    
Maximum Humidity 60    
Minimum Humidity 33    
Precipitation  
Precipitation 0.00 in 0.06 in 1.08 in (2009)
Month to date precipitation 0.61  
Year to date precipitation 2.54  
Snow  
Snow 0.00 in 0.30 in 0.80 in (2008)
Month to date snowfall 2.8  
Since 1 July snowfall 23.8  
Snow Depth -    
Sea Level Pressure  
Sea Level Pressure 30.33 in    
Wind  
Wind Speed 12 mph (WNW)    
Max Wind Speed 17 mph    
Max Gust Speed 26 mph    
Visibility 10 miles    
Events      
T = Trace of Precipitation, MM = Missing Value Source: NWS Daily Summary

Daily Weather History Graph

Daily Weather History Graph

Search for Another Location

Airport or City:

Trip Planner

Search our weather history database for the weather conditions in past years. The results will help you decide how hot, cold, wet, or windy it might be!

Date:

Astronomy

Feb. 11, 2012 Rise Set
Actual Time 6:53 AM CST 5:20 PM CST
Civil Twilight 6:25 AM CST 5:49 PM CST
Nautical Twilight 5:52 AM CST 6:22 PM CST
Astronomical Twilight 5:20 AM CST 6:54 PM CST
Moon 10:13 PM CST (2/11) 8:31 AM CST (2/11)
Length of Visible Light 11h 24m
Length of Day
10h 27m
Waning Gibbous, 82% of the Moon is Illuminated
Feb 11
Waning Gibbous
Feb 14
Last Quarter
Feb 21
New
Feb 29
First Quarter
Mar 8
Full

Hourly Weather History & Observations

Time (CST) Temp. Windchill Dew Point Humidity Pressure Visibility Wind Dir Wind Speed Gust Speed Precip Events Conditions
12:15 AM 13.5 °F -2.7 °F 0.3 °F 56% 30.22 in 10.0 mi NW 16.1 mph 26.5 mph N/A   Clear
12:35 AM 13.5 °F 0.5 °F 1.2 °F 58% 30.23 in 10.0 mi NW 10.4 mph 19.6 mph N/A   Clear
12:55 AM 13.5 °F -2.1 °F 1.4 °F 59% 30.23 in 10.0 mi NW 15.0 mph 21.9 mph N/A   Clear
1:15 AM 12.9 °F -3.9 °F 0.5 °F 58% 30.23 in 10.0 mi NNW 17.3 mph 26.5 mph N/A   Clear
1:35 AM 13.5 °F -2.1 °F 0.5 °F 56% 30.24 in 10.0 mi NW 15.0 mph 25.3 mph N/A   Clear
1:55 AM 11.5 °F -5.8 °F -0.6 °F 58% 30.24 in 10.0 mi NW 17.3 mph 21.9 mph N/A   Clear
2:15 AM 12.7 °F -1.1 °F 1.2 °F 60% 30.25 in 10.0 mi NW 11.5 mph 24.2 mph N/A   Clear
2:35 AM 11.3 °F -3.6 °F -0.0 °F 60% 30.26 in 10.0 mi NW 12.7 mph 20.7 mph N/A   Clear
2:55 AM 10.9 °F -3.4 °F -0.4 °F 60% 30.25 in 10.0 mi NW 11.5 mph 25.3 mph N/A   Clear
3:15 AM 10.9 °F -4.7 °F -0.6 °F 60% 30.25 in 10.0 mi NW 13.8 mph 20.7 mph N/A   Clear
3:35 AM 10.9 °F -1.8 °F -1.1 °F 58% 30.26 in 10.0 mi NW 9.2 mph 20.7 mph N/A   Clear
3:55 AM 10.9 °F -2.6 °F -0.6 °F 60% 30.27 in 10.0 mi NW 10.4 mph 17.3 mph N/A   Clear
4:15 AM 10.9 °F -3.4 °F -0.9 °F 59% 30.28 in 10.0 mi NW 11.5 mph 21.9 mph N/A   Clear
4:35 AM 10.4 °F -4.8 °F -1.5 °F 59% 30.28 in 10.0 mi NW 12.7 mph 20.7 mph N/A   Clear
4:55 AM 10.9 °F -0.8 °F -1.3 °F 58% 30.30 in 10.0 mi WNW 8.1 mph 17.3 mph N/A   Clear
5:15 AM 10.8 °F 1.2 °F -1.5 °F 58% 30.31 in 10.0 mi WNW 5.8 mph - N/A   Clear
5:35 AM 10.9 °F -1.8 °F -1.3 °F 58% 30.31 in 10.0 mi WNW 9.2 mph 19.6 mph N/A   Clear
5:55 AM 10.4 °F -2.4 °F -1.8 °F 58% 30.32 in 10.0 mi WNW 9.2 mph 19.6 mph N/A   Clear
6:15 AM 10.9 °F -1.8 °F -2.0 °F 56% 30.33 in 10.0 mi WNW 9.2 mph 17.3 mph N/A   Clear
6:35 AM 10.9 °F -1.8 °F -1.8 °F 56% 30.34 in 10.0 mi WNW 9.2 mph 18.4 mph N/A   Clear
6:55 AM 10.2 °F -3.5 °F -2.7 °F 56% 30.34 in 10.0 mi WNW 10.4 mph 20.7 mph N/A   Clear
7:15 AM 10.9 °F -2.6 °F -2.2 °F 56% 30.35 in 10.0 mi NW 10.4 mph 19.6 mph N/A   Clear
7:35 AM 10.4 °F -1.5 °F -4.0 °F 52% 30.36 in 10.0 mi WNW 8.1 mph 18.4 mph N/A   Clear
7:55 AM 10.9 °F -2.6 °F -3.1 °F 53% 30.37 in 10.0 mi WNW 10.4 mph 18.4 mph N/A   Clear
8:15 AM 11.3 °F -2.2 °F -3.8 °F 51% 30.38 in 10.0 mi WNW 10.4 mph 17.3 mph N/A   Clear
8:35 AM 12.7 °F -2.5 °F -2.7 °F 50% 30.38 in 10.0 mi WNW 13.8 mph 19.6 mph N/A   Clear
8:55 AM 13.5 °F 1.3 °F -2.6 °F 49% 30.39 in 10.0 mi WNW 9.2 mph 16.1 mph N/A   Clear
9:15 AM 13.5 °F 0.5 °F -2.7 °F 49% 30.39 in 10.0 mi WNW 10.4 mph 18.4 mph N/A   Clear
9:35 AM 13.8 °F 0.2 °F -2.4 °F 49% 30.40 in 10.0 mi WNW 11.5 mph 20.7 mph N/A   Clear
9:55 AM 14.7 °F 2.9 °F -2.0 °F 48% 30.40 in 10.0 mi WNW 9.2 mph 19.6 mph N/A   Clear
10:15 AM 15.4 °F 4.6 °F -1.1 °F 48% 30.40 in 10.0 mi West 8.1 mph 19.6 mph N/A   Clear
10:35 AM 15.8 °F 3.4 °F -0.8 °F 48% 30.40 in 10.0 mi WNW 10.4 mph 16.1 mph N/A   Clear
10:55 AM 15.8 °F 3.4 °F -0.4 °F 49% 30.40 in 10.0 mi WNW 10.4 mph 16.1 mph N/A   Clear
11:15 AM 16.7 °F 3.8 °F 1.0 °F 50% 30.39 in 10.0 mi West 11.5 mph 17.3 mph N/A   Clear
11:35 AM 16.9 °F 6.4 °F 0.5 °F 49% 30.39 in 10.0 mi WNW 8.1 mph 18.4 mph N/A   Clear
11:55 AM 18.5 °F 4.9 °F 2.3 °F 49% 30.38 in 10.0 mi West 13.8 mph 19.6 mph N/A   Clear
12:15 PM 18.5 °F 6.1 °F 1.8 °F 48% 30.38 in 10.0 mi West 11.5 mph 18.4 mph N/A   Clear
12:35 PM 18.5 °F 5.5 °F 1.9 °F 49% 30.37 in 10.0 mi West 12.7 mph 19.6 mph N/A   Clear
12:55 PM 18.9 °F 5.3 °F 1.2 °F 46% 30.37 in 10.0 mi West 13.8 mph 23.0 mph N/A   Clear
1:15 PM 19.0 °F 6.8 °F -0.2 °F 43% 30.36 in 10.0 mi West 11.5 mph 21.9 mph N/A   Clear
1:35 PM 19.8 °F 7.7 °F -0.0 °F 42% 30.36 in 10.0 mi West 11.5 mph 17.3 mph N/A   Clear
1:55 PM 20.1 °F 5.9 °F -1.1 °F 39% 30.36 in 10.0 mi West 16.1 mph 19.6 mph N/A   Clear
2:15 PM 21.0 °F 7.6 °F 0.7 °F 41% 30.36 in 10.0 mi WNW 15.0 mph 23.0 mph N/A   Clear
2:35 PM 21.2 °F 9.5 °F -0.2 °F 39% 30.36 in 10.0 mi West 11.5 mph 19.6 mph N/A   Clear
2:55 PM 21.9 °F 8.7 °F -1.3 °F 36% 30.36 in 10.0 mi West 15.0 mph 26.5 mph N/A   Clear
3:15 PM 21.9 °F 8.7 °F -1.5 °F 36% 30.36 in 10.0 mi West 15.0 mph 23.0 mph N/A   Clear
3:35 PM 22.5 °F 10.5 °F -0.8 °F 36% 30.36 in 10.0 mi West 12.7 mph 23.0 mph N/A   Clear
3:55 PM 22.1 °F 9.5 °F -2.4 °F 34% 30.35 in 10.0 mi WNW 13.8 mph 23.0 mph N/A   Clear
4:15 PM 22.1 °F 10.0 °F -1.8 °F 35% 30.36 in 10.0 mi WNW 12.7 mph 19.6 mph N/A   Clear
4:35 PM 21.9 °F 11.0 °F -3.6 °F 33% 30.36 in 10.0 mi WNW 10.4 mph 20.7 mph N/A   Clear
4:55 PM 21.2 °F 7.8 °F -4.0 °F 33% 30.36 in 10.0 mi West 15.0 mph 21.9 mph N/A   Clear
5:15 PM 20.8 °F 7.9 °F -3.5 °F 34% 30.36 in 10.0 mi West 13.8 mph 21.9 mph N/A   Clear
5:35 PM 20.1 °F 8.1 °F -3.5 °F 35% 30.37 in 10.0 mi West 11.5 mph 18.4 mph N/A   Clear
5:55 PM 19.8 °F 10.8 °F -3.1 °F 37% 30.37 in 10.0 mi WNW 6.9 mph 17.3 mph N/A   Clear
6:15 PM 19.8 °F 9.1 °F -2.9 °F 37% 30.37 in 10.0 mi WNW 9.2 mph - N/A   Clear
6:35 PM 19.4 °F 9.5 °F -2.2 °F 39% 30.38 in 10.0 mi West 8.1 mph 17.3 mph N/A   Clear
6:55 PM 19.4 °F 9.5 °F -1.3 °F 40% 30.38 in 10.0 mi West 8.1 mph - N/A   Clear
7:15 PM 19.2 °F 10.2 °F -0.6 °F 42% 30.38 in 10.0 mi West 6.9 mph - N/A   Clear
7:35 PM 18.7 °F 8.6 °F -1.1 °F 42% 30.38 in 10.0 mi West 8.1 mph - N/A   Clear
7:55 PM 18.5 °F 9.3 °F -0.9 °F 43% 30.38 in 10.0 mi West 6.9 mph - N/A   Clear
8:15 PM 18.5 °F 8.4 °F -1.5 °F 42% 30.38 in 10.0 mi West 8.1 mph - N/A   Clear
8:35 PM 18.5 °F 8.4 °F -1.8 °F 41% 30.38 in 10.0 mi West 8.1 mph - N/A   Clear
8:55 PM 18.5 °F 7.5 °F -2.4 °F 40% 30.38 in 10.0 mi West 9.2 mph 16.1 mph N/A   Clear
9:15 PM 18.5 °F 7.5 °F -1.7 °F 41% 30.38 in 10.0 mi West 9.2 mph - N/A   Clear
9:35 PM 18.5 °F 7.5 °F -1.5 °F 42% 30.38 in 10.0 mi West 9.2 mph - N/A   Clear
9:55 PM 18.5 °F 6.8 °F -1.5 °F 42% 30.38 in 10.0 mi West 10.4 mph - N/A   Clear
10:15 PM 18.5 °F 9.3 °F -1.5 °F 42% 30.37 in 10.0 mi West 6.9 mph - N/A   Clear
10:35 PM 18.1 °F 11.3 °F -0.8 °F 44% 30.37 in 10.0 mi West 4.6 mph - N/A   Clear
10:55 PM 18.1 °F 8.9 °F -0.0 °F 45% 30.36 in 10.0 mi West 6.9 mph - N/A   Clear
11:15 PM 17.8 °F 8.5 °F 0.1 °F 46% 30.36 in 10.0 mi West 6.9 mph - N/A   Clear
11:35 PM 17.2 °F 6.8 °F 0.5 °F 48% 30.36 in 10.0 mi West 8.1 mph - N/A   Clear
11:55 PM 17.2 °F 6.8 °F 0.3 °F 48% 30.36 in 10.0 mi West 8.1 mph - N/A   Clear